Location: Chervonnoye
(48.6000°N, 34.4000°E)
Time: 07:24:52
(UTC+00:00)

Nadezhda 1 Rocket - Pass Details

Date: 23 April 2021
Orbit: 940 x 1006 km, 83.0° (Epoch: 13 May)

Event Time Altitude Azimuth Distance (km) Brightness Sun altitude
Exits shadow 22:44:43 40° 264° (W) 1,437 4.6 -26.9°
Maximum altitude 22:45:41 43° 287° (WNW) 1,382 4.7 -26.9°
Drops below altitude 10° 22:51:44 10° 358° (N) 2,773 7.2 -26.6°
Sets 22:54:25 0° 6° (N) 3,718 8.2 -26.4°
